Epoch 2009 Nov. 25.0 TT = JDT 2455160.5 T 2009 Nov. 7.96200 TT MPC q 2.6622310 (2000.0) P Q z +0.0091227 Peri. 296.98736 -0.39390223 -0.90206846 +/-0.0000467 Node 169.29286 +0.66615969 -0.14795202 e 0.9757134 Incl. 71.69745 -0.63330269 +0.40544136
m1 = 11.5 + 5 log d + 10.0 log r